Overview Statistics Trail Chart Weather Telemetry Raw packets
 

This is the latest recevied weather packets stored in our database for station/object DC9VQ-13. If no packets are shown the sender has not sent any weather packets the latest 10 day(s).

<< 1 2 3 4 5 6 >>
Time Temp. Humidity Pressure Rain* Wind** Luminosity Snow
1788615025 22.78° C 51% 1022.9 hPa 0 mm - - -
1788614431 22.78° C 50% 1022.8 hPa 0 mm - - -
1788613819 22.78° C 50% 1022.9 hPa 0 mm - - -
1788613228 22.78° C 50% 1022.9 hPa 0 mm - - -
1788612615 22.22° C 51% 1022.8 hPa 0 mm - - -
1788612024 22.22° C 51% 1022.8 hPa 0 mm - - -
1788611422 22.22° C 50% 1022.8 hPa 0 mm - - -
1788610824 22.22° C 52% 1022.6 hPa 0 mm - - -
1788610217 21.67° C 52% 1022.7 hPa 0 mm - - -
1788609334 21.67° C 55% 1022.7 hPa 0 mm - - -
1788608401 21.11° C 55% 1022.6 hPa 0 mm - - -
1788607799 21.11° C 56% 1022.7 hPa 0 mm - - -
1788607197 20.56° C 56% 1022.8 hPa 0 mm - - -
1788606595 20.56° C 57% 1022.8 hPa 0 mm - - -
1788605993 20.56° C 55% 1022.9 hPa 0 mm - - -
1788605391 20.56° C 56% 1022.8 hPa 0 mm - - -
1788604789 20.56° C 56% 1022.9 hPa 0 mm - - -
1788604186 20.56° C 58% 1022.9 hPa 0 mm - - -
1788603585 20° C 59% 1022.9 hPa 0 mm - - -
1788602441 20° C 58% 1022.8 hPa 0 mm - - -
1788600575 20° C 59% 1022.8 hPa 0 mm - - -
1788599973 19.44° C 62% 1022.7 hPa 0 mm - - -
1788599371 19.44° C 63% 1022.5 hPa 0 mm - - -
1788598768 19.44° C 66% 1022.4 hPa 0 mm - - -
1788598167 18.89° C 68% 1022.4 hPa 0 mm - - -

* Rain latest hour (hover to see other rain measurements)
** Current wind speed in m/s (hover to see current wind gust speed)